This is the latest recevied weather packets stored in our database for station/object WX6HNX-12. If no packets are shown the sender has not sent any weather packets the latest 10 day(s).
| Time | Temp. | Humidity | Pressure | Rain* | Wind** | Luminosity | Snow |
|---|---|---|---|---|---|---|---|
| 1777825019 | 17.22° C | 58% | 1011.8 hPa | 0 mm | - | - | - |
| 1777824719 | 17.22° C | 59% | 1011.7 hPa | 0 mm | - | - | - |
| 1777824418 | 17.22° C | 59% | 1011.6 hPa | 0 mm | - | - | - |
| 1777824118 | 17.22° C | 60% | 1011.6 hPa | 0 mm | - | - | - |
| 1777823819 | 16.67° C | 62% | 1011.5 hPa | 0 mm | - | - | - |
| 1777823519 | 16.11° C | 64% | 1011.6 hPa | 0 mm | - | - | - |
| 1777823219 | 16.11° C | 65% | 1011.5 hPa | 0 mm | - | - | - |
| 1777822918 | 15.56° C | 65% | 1011.5 hPa | 0 mm | - | - | - |
| 1777822618 | 15.56° C | 66% | 1011.3 hPa | 0 mm | - | - | - |
| 1777822318 | 15.56° C | 66% | 1011.3 hPa | 0 mm | - | - | - |
| 1777822018 | 15.56° C | 67% | 1011.4 hPa | 0 mm | - | - | - |
| 1777821720 | 15° C | 68% | 1011.4 hPa | 0 mm | - | - | - |
| 1777821419 | 15° C | 69% | 1011.4 hPa | 0 mm | - | - | - |
| 1777820907 | 15° C | 69% | 1011.1 hPa | 0 mm | - | - | - |
| 1777820607 | 14.44° C | 70% | 1011 hPa | 0 mm | - | - | - |
| 1777820007 | 14.44° C | 71% | 1011.1 hPa | 0 mm | - | - | - |
| 1777819708 | 14.44° C | 71% | 1011 hPa | 0 mm | - | - | - |
| 1777819407 | 14.44° C | 71% | 1011 hPa | 0 mm | - | - | - |
| 1777819107 | 14.44° C | 71% | 1011.1 hPa | 0 mm | - | - | - |
| 1777818809 | 14.44° C | 72% | 1011 hPa | 0 mm | - | - | - |
| 1777818433 | 13.89° C | 73% | 1011 hPa | 0 mm | - | - | - |
| 1777818133 | 13.33° C | 74% | 1010.8 hPa | 0 mm | - | - | - |
| 1777817833 | 13.33° C | 75% | 1010.8 hPa | 0 mm | - | - | - |
| 1777817233 | 12.78° C | 76% | 1010.5 hPa | 0 mm | - | - | - |
| 1777816933 | 12.78° C | 76% | 1010.3 hPa | 0 mm | - | - | - |
* Rain latest hour (hover to see other rain measurements)
** Current wind speed in m/s (hover to see current wind gust speed)